Погода в Никольском

Россия / Белгородская область     50°26′28″N   36°34′43″E
темп.,
°C
ветер,
м/с
пор.,
м/с
влажн.,
%
обл.,
%
осадки,
мм/ч
давл.,
гПа
погр.,
м
20 мая, пт
пт2000:00+9сз3585100 0.3 101789
03:00+7сз48885 0.3 1017123
06:00+7сз498825 0.0 1017210
09:00+14сз68665 0.0 1017733
12:00+16ссз7106086 0.3 10161541
15:00+17ссз6853100 0.6 10161925
18:00+16ссв3462100 0.0 1015563
21:00+12ю2282100 0.4 101626
21 мая, сб
сб2100:00+10вюв1294100 2.3 101572
03:00+10вюв4795100 3.1 1013341
06:00+9юв61197100 7.4 1010408
09:00+9вюв6998100 9.4 1008396
12:00+10всв6797100 0.4 1008363
15:00+9вюв5695100 0.6 1008343
18:00+9вюв4496100 0.0 1007255
21:00+9юв4699100 0.6 1005176
22 мая, вс
вс2200:00+10юв2799100 2.1 1002256
03:00+12з81390100 2.8 1001687
06:00+11з81288100 0.0 1000868
09:00+12з8147461 0.2 9991386
12:00+11з81287100 1.3 9981280
15:00+10з6985100 1.6 999871
18:00+9з4890100 0.1 1000559
21:00+8с3796100 0.4 1001441
23 мая, пн
пн2300:00+6св51291100 0.3 1004657
03:00+6ссв5890100 0.3 1005601
06:00+4с37945 0.0 1007205
09:00+10ссв57671 0.0 1008783
12:00+13ссв564878 0.0 10082147
15:00+13ссз4554100 0.0 10091783
18:00+12ссз4660100 0.0 1009819
21:00+7сз33725 0.0 101020
24 мая, вт
вт2400:00+5зсз228060 0.0 101118
03:00+5зсз368543 0.0 101289
06:00+5сз37865 0.0 1013177
09:00+12ссз465799 0.0 1013655
12:00+14ссз564438 0.0 10132014
15:00+15ссз5545100 0.0 10141939
18:00+14ссз465713 0.0 10151452
21:00+9зсз33735 0.0 101725